Camarillo, CA

10:39 AM PDT on May 29, 2017 (GMT -0700)
Camarillo

Weather History for KCMA - September, 2011

Change the Weather History Date:

Tuesday, September 13, 2011

  Actual Average Record
Temperature  
Mean Temperature 69 °F 67 °F  
Max Temperature 79 °F 77 °F 89 °F (2014)
Min Temperature 59 °F 58 °F 46 °F (1966)
Degree Days  
Heating Degree Days 0 0  
Month to date heating degree days 3 0  
Since 1 July heating degree days 6 15  
Cooling Degree Days 4 3  
Month to date cooling degree days 52 39  
Year to date cooling degree days 363 251  
Growing Degree Days 19 (Base 50)    
Moisture  
Dew Point 57 °F    
Average Humidity 69    
Maximum Humidity 84    
Minimum Humidity 54    
Precipitation  
Precipitation 0.00 in 0.01 in 0.00 in (2017)
Month to date precipitation 0.02 0.04  
Year to date precipitation 10.25 11.08  
Since 1 July precipitation 0.02  
Sea Level Pressure  
Sea Level Pressure 30.01 in    
Wind  
Wind Speed 4 mph (WSW)    
Max Wind Speed 14 mph    
Max Gust Speed 18 mph    
Visibility 10 miles    
Events      
T = Trace of Precipitation, MM = Missing Value Source: NWS Daily Summary

Daily Weather History Graph

Daily Weather History Graph

Search for Another Location

Airport or City:

Trip Planner

Search our weather history database for the weather conditions in past years. The results will help you decide how hot, cold, wet, or windy it might be!

Date:

Astronomy

Sep. 13, 2011 Rise Set
Actual Time 6:38 AM PDT 7:06 PM PDT
Civil Twilight 6:12 AM PDT 7:31 PM PDT
Nautical Twilight 5:43 AM PDT 8:00 PM PDT
Astronomical Twilight 5:13 AM PDT 8:30 PM PDT
Moon 7:32 PM PDT (9/13) 7:49 AM PDT (9/13)
Length of Visible Light 13h 18m
Length of Day
12h 28m
Full, 98% of the Moon is Illuminated
Sep 13
Full
Sep 20
Last Quarter
Sep 27
New
Oct 3
First Quarter
Oct 11
Full

Hourly Weather History & Observations

Time (PDT) Temp. Dew Point Humidity Pressure Visibility Wind Dir Wind Speed Gust Speed Precip Events Conditions
12:55 AM 62.1 °F 54.0 °F 75% 30.04 in 10.0 mi Calm Calm - N/A   Clear
1:55 AM 62.1 °F 54.0 °F 75% 30.04 in 10.0 mi Calm Calm - N/A   Clear
2:55 AM 61.0 °F 53.1 °F 75% 30.02 in 10.0 mi Calm Calm - N/A   Clear
3:55 AM 61.0 °F 54.0 °F 78% 30.01 in 10.0 mi Calm Calm - N/A   Clear
4:55 AM 61.0 °F 52.0 °F 72% 30.01 in 10.0 mi Calm Calm - N/A   Clear
5:55 AM 60.1 °F 53.1 °F 78% 30.01 in 10.0 mi Calm Calm - N/A   Clear
6:55 AM 60.1 °F 52.0 °F 75% 30.02 in 10.0 mi Calm Calm - N/A   Clear
7:55 AM 64.0 °F 53.1 °F 67% 30.04 in 10.0 mi Calm Calm - N/A   Clear
8:14 AM 64.4 °F 53.6 °F 68% 30.01 in 10.0 mi Calm Calm - N/A   Scattered Clouds
8:30 AM 66.2 °F 53.6 °F 64% 30.01 in 10.0 mi Calm Calm - N/A   Mostly Cloudy
8:39 AM 66.2 °F 55.4 °F 68% 30.01 in 10.0 mi Calm Calm - N/A   Overcast
8:55 AM 66.9 °F 59.0 °F 76% 30.04 in 9.0 mi SW 3.5 mph - N/A   Scattered Clouds
9:55 AM 71.1 °F 60.1 °F 68% 30.05 in 10.0 mi Calm Calm - N/A   Clear
11:55 AM 78.1 °F 61.0 °F 56% 30.03 in 10.0 mi SW 9.2 mph - N/A   Clear
12:55 PM 75.9 °F 61.0 °F 60% 30.03 in 10.0 mi SW 11.5 mph - N/A   Clear
1:55 PM 77.0 °F 62.1 °F 60% 30.01 in 10.0 mi SW 11.5 mph - N/A   Clear
2:55 PM 78.1 °F 61.0 °F 56% 30.00 in 10.0 mi WSW 10.4 mph - N/A   Clear
3:55 PM 75.9 °F 57.9 °F 54% 29.99 in 10.0 mi SW 9.2 mph - N/A   Clear
5:55 PM 70.0 °F 57.9 °F 65% 29.98 in 10.0 mi West 8.1 mph - N/A   Clear
6:55 PM 69.1 °F 59.0 °F 70% 29.99 in 10.0 mi SW 3.5 mph - N/A   Clear
7:55 PM 66.9 °F 59.0 °F 76% 29.98 in 10.0 mi West 4.6 mph - N/A   Clear
9:55 PM 66.0 °F 60.1 °F 81% 30.00 in 8.0 mi Calm Calm - N/A   Clear
11:33 PM 64.4 °F 59.0 °F 83% 29.97 in 7.0 mi Calm Calm - N/A   Scattered Clouds
11:41 PM 64.4 °F 59.0 °F 83% 29.97 in 7.0 mi Calm Calm - N/A   Mostly Cloudy
11:55 PM 64.9 °F 59.0 °F 81% 30.00 in 8.0 mi Calm Calm - N/A   Overcast